GW0221 Weather Reports


time (UTC)temp
C
wind
direction
speed
KPH
gust
KPH
rain 1hr
cm
rain 24hr
cm
rain mn
cm
humidity
%
barometer
mb
20260506143058 15 232 4.8 19.3 0.00 0.00 0.00 84 1008.5
20260506141603 15 302 8.0 22.5 0.00 0.00 0.00 84 1008.9
20260506140057 15 321 9.7 17.7 0.00 0.00 0.00 83 1009.0
20260506134601 15 328 8.0 24.1 0.00 0.00 0.00 85 1009.3
20260506133126 15 305 12.9 29.0 0.00 0.00 0.00 84 1009.2
20260506131558 15 333 8.0 24.1 0.00 0.00 0.00 86 1009.1
20260506130121 14 347 6.4 19.3 0.00 0.00 0.00 86 1009.0
20260506124600 14 233 8.0 20.9 0.00 0.00 0.00 85 1009.1
20260506123057 15 143 4.8 19.3 0.00 0.00 0.00 84 1009.1
20260506121556 15 245 4.8 19.3 0.00 0.00 0.00 85 1009.4
20260506114604 14 330 9.7 24.1 0.00 0.00 0.00 86 1009.4
20260506113056 14 286 8.0 20.9 0.00 0.00 0.00 87 1009.2
20260506111600 13 321 4.8 14.5 0.00 0.00 0.00 88 1009.1
20260506110105 13 294 4.8 20.9 0.00 0.00 0.00 89 1009.4
20260506104636 13 349 6.4 24.1 0.00 0.00 0.00 90 1009.2
20260506103111 12 153 4.8 14.5 0.00 0.00 0.00 91 1009.1
20260506101605 12 18 6.4 16.1 0.00 0.00 0.00 91 1009.0
20260506100100 12 71 3.2 20.9 0.00 0.00 0.00 91 1009.2
20260506094600 12 330 3.2 14.5 0.00 0.00 0.00 91 1009.2
20260506093101 12 169 3.2 16.1 0.00 0.00 0.00 91 1009.1
20260506091603 12 81 4.8 16.1 0.00 0.00 0.00 90 1009.1
20260506090100 13 277 3.2 19.3 0.00 0.00 0.00 90 1009.3
20260506084601 13 314 6.4 16.1 0.00 0.00 0.00 90 1009.2
20260506083059 13 104 8.0 22.5 0.00 0.00 0.00 90 1009.5
20260506081601 12 312 3.2 16.1 0.00 0.00 0.00 89 1009.4
20260506080109 12 345 4.8 16.1 0.00 0.00 0.00 89 1009.3
20260506073057 12 335 3.2 17.7 0.00 0.00 0.00 89 1009.6
20260506071624 12 354 4.8 12.9 0.00 0.00 0.00 88 1009.7
20260506061556 13 303 4.8 17.7 0.00 0.00 0.00 87 1009.6
20260506044611 13 96 6.4 19.3 0.00 0.00 0.00 85 1009.9
20260506043059 13 338 4.8 24.1 0.00 0.00 0.00 84 1010.0
20260506041558 13 49 4.8 20.9 0.00 0.00 0.00 84 1010.1
20260506040100 14 137 4.8 24.1 0.00 0.00 0.00 83 1010.0
20260506034601 14 95 4.8 19.3 0.00 0.00 0.00 82 1009.9
20260506033057 14 156 4.8 33.8 0.00 0.00 0.00 82 1010.0
20260506031600 14 331 4.8 19.3 0.00 0.00 0.00 82 1009.8
20260506030100 15 53 6.4 25.7 0.00 0.00 0.00 82 1009.8
20260506024559 15 94 6.4 27.4 0.00 0.00 0.00 82 1009.9
20260506023059 15 264 6.4 27.4 0.00 0.00 0.00 82 1009.9
20260506021605 15 160 8.0 24.1 0.00 0.00 0.00 82 1009.9
20260506020100 15 98 6.4 19.3 0.00 0.00 0.00 81 1010.1
20260506014612 15 65 8.0 24.1 0.00 0.00 0.00 79 1010.1
20260506013059 15 39 4.8 27.4 0.00 0.00 0.00 79 1009.8
20260506011557 15 344 6.4 25.7 0.00 0.00 0.00 78 1009.8
20260506010103 15 1 9.7 24.1 0.00 0.00 0.00 78 1009.6
20260506004604 15 112 6.4 20.9 0.00 0.00 0.00 77 1009.4
20260506003117 16 325 9.7 24.1 0.00 0.00 0.00 75 1009.2
20260506001623 16 263 6.4 22.5 0.00 0.00 0.00 75 1009.0
20260506000110 16 339 4.8 24.1 0.00 0.00 0.00 75 1008.7
20260505234613 16 324 9.7 37.0 0.00 0.00 0.00 75 1008.4
20260505233055 16 349 11.3 38.6 0.00 0.00 0.00 75 1008.1
20260505231556 16 307 9.7 27.4 0.00 0.00 0.00 76 1008.0
20260505230057 16 150 11.3 32.2 0.00 0.00 0.00 75 1007.9
20260505224600 16 301 11.3 27.4 0.00 0.00 0.00 74 1007.8
20260505223107 16 333 14.5 32.2 0.00 0.00 0.00 75 1007.6
20260505221603 16 337 11.3 24.1 0.00 0.00 0.00 73 1007.5
20260505220100 17 6 9.7 32.2 0.00 0.00 0.00 71 1007.4
20260505214603 17 27 6.4 24.1 0.00 0.00 0.00 72 1007.5
20260505213104 17 345 9.7 27.4 0.00 0.00 0.00 72 1007.3
20260505211629 17 301 9.7 25.7 0.00 0.00 0.00 71 1007.2
20260505210059 17 158 11.3 27.4 0.00 0.00 0.00 72 1007.3
20260505204600 17 292 9.7 35.4 0.00 0.00 0.00 72 1007.3
20260505203126 17 53 8.0 25.7 0.00 0.00 0.00 72 1007.5
20260505201600 17 308 8.0 24.1 0.00 0.00 0.00 73 1007.6
20260505200057 17 144 8.0 25.7 0.00 0.00 0.00 73 1007.7
20260505194602 17 341 6.4 20.9 0.00 0.00 0.00 71 1007.8
20260505193102 18 350 6.4 22.5 0.00 0.00 0.00 71 1008.2
20260505191558 18 330 4.8 17.7 0.00 0.00 0.00 71 1008.5
20260505190058 17 144 9.7 25.7 0.00 0.00 0.00 72 1008.9
20260505184600 18 66 4.8 20.9 0.00 0.00 0.00 72 1009.0
20260505183104 17 45 9.7 24.1 0.00 0.00 0.00 72 1009.1
20260505181559 18 25 8.0 16.1 0.00 0.00 0.00 70 1009.1
20260505180114 17 164 4.8 20.9 0.00 0.00 0.00 72 1009.3
20260505174600 17 341 11.3 29.0 0.00 0.00 0.00 72 1009.3
20260505173057 17 58 6.4 17.7 0.00 0.00 0.00 73 1009.3
20260505171559 18 13 4.8 16.1 0.00 0.00 0.00 73 1009.5
20260505170058 17 334 4.8 16.1 0.00 0.00 0.00 74 1009.6
20260505164602 17 354 8.0 17.7 0.00 0.00 0.00 73 1009.7
20260505163056 18 319 6.4 14.5 0.00 0.00 0.00 70 1009.6
20260505161556 18 314 4.8 17.7 0.00 0.00 0.00 71 1009.9
20260505153059 18 72 4.8 9.7 0.00 0.00 0.00 73 1009.8
20260505151557 17 28 6.4 16.1 0.00 0.00 0.00 73 1010.2